Dati Storici

Data ora Umidita' aria (%) Temperatura aria (°C) Rad globale (W/m²) Gonioanemometro (°) Tacoanemometro (m/s) Pioggia (mm)
07-06-2020 10:10 65.3 % 23.475 -50.108 2.613 0 0
07-06-2020 10:00 65.4 % 23.35 -46.203 3.191 0 0
07-06-2020 09:50 65.8 % 23.787 -60.435 1.68 0 0
07-06-2020 09:40 67.3 % 23.367 -61.039 1.103 0 0
07-06-2020 09:30 68 % 23.382 -70.645 2.079 0 0
07-06-2020 09:20 68.8 % 23.17 -66.899 1.617 0 0
07-06-2020 09:10 69.4 % 23.003 -65.82 1.709 0 0
07-06-2020 09:00 71.7 % 23.774 -70.957 0.627 0 0
07-06-2020 08:50 73.4 % 23.173 -76.332 1.638 0 0
07-06-2020 08:40 87.2 % 23.311 -69.424 0.548 0 0
07-06-2020 08:30 90 % 21.618 -58.512 1.129 0 0
07-06-2020 08:20 94.6 % 21.066 -41.099 1.93 0 0
07-06-2020 08:10 95.4 % 21.113 -81.181 2.852 0 0
07-06-2020 08:00 96 % 20.614 -79.703 1.564 0 0
07-06-2020 07:50 97.6 % 20.928 -81.964 1.77 0 0
07-06-2020 07:40 97.2 % 20.298 -80.863 1.587 0 0
07-06-2020 07:30 97.6 % 21.111 -78.092 1.716 0 0
07-06-2020 07:20 97.6 % 20.132 -75.648 1.901 0 0
07-06-2020 07:10 97.7 % 20.094 -65.748 1.193 0 0
07-06-2020 07:00 97.7 % 19.563 -80.44 2.971 0 0

I dati sono presentati in modo automatico a scopo informativo. In seguito a verifica i dati possono subire modifiche o essere invalidati e non riportati negli archivi definitivi.